EW5139 Weather Reports


Display with metric or nautical units.
time (UTC)temp
F
wind
direction
speed
MPH
gust
MPH
rain 1hr
in
rain 24hr
in
rain mn
in
humidity
%
barometer
mb
20260503201904 60 268 1.0 3.0 0.00 0.00 0.00 44 1016.1
20260503201405 60 155 0.0 3.0 0.00 0.00 0.00 45 1016.2
20260503200905 61 274 1.0 3.0 0.00 0.00 0.00 43 1016.3
20260503200405 61 151 1.0 3.0 0.00 0.00 0.00 45 1016.1
20260503195904 62 178 2.0 6.0 0.00 0.00 0.00 42 1016.1
20260503195404 62 153 2.0 5.0 0.00 0.00 0.00 43 1016.2
20260503194404 63 199 1.0 3.0 0.00 0.00 0.00 42 1016.4
20260503193904 63 128 2.0 6.0 0.00 0.00 0.00 44 1016.6
20260503193405 63 127 1.0 7.0 0.00 0.00 0.00 44 1016.7
20260503192904 63 187 2.0 5.0 0.00 0.00 0.00 42 1017.1
20260503192404 62 135 1.0 5.0 0.00 0.00 0.00 43 1017.1
20260503191905 62 259 1.0 7.0 0.00 0.00 0.00 42 1017.1
20260503191405 61 136 3.0 9.0 0.00 0.00 0.00 43 1017.2
20260503190404 61 322 3.0 9.0 0.00 0.00 0.00 43 1017.3
20260503185904 61 126 2.0 7.0 0.00 0.00 0.00 45 1017.3
20260503184904 60 228 2.0 12.0 0.00 0.00 0.00 43 1017.6
20260503184404 60 110 1.0 3.0 0.00 0.00 0.00 44 1017.6
20260503183904 60 268 2.0 9.0 0.00 0.00 0.00 42 1017.9
20260503182405 61 294 2.0 6.0 0.00 0.00 0.00 41 1017.9
20260503181904 61 170 1.0 6.0 0.00 0.00 0.00 41 1018.1
20260503181405 61 264 1.0 6.0 0.00 0.00 0.00 43 1018.1
20260503180904 62 126 3.0 6.0 0.00 0.00 0.00 42 1018.3
20260503180404 61 137 2.0 7.0 0.00 0.00 0.00 43 1018.2
20260503175904 62 189 2.0 7.0 0.00 0.00 0.00 43 1018.3
20260503175404 62 287 2.0 7.0 0.00 0.00 0.00 43 1018.3
20260503174905 61 150 2.0 5.0 0.00 0.00 0.00 44 1018.3
20260503174404 61 103 1.0 3.0 0.00 0.00 0.00 42 1018.4
20260503173904 61 133 1.0 6.0 0.00 0.00 0.00 43 1018.5
20260503173404 60 238 1.0 3.0 0.00 0.00 0.00 44 1018.5
20260503172905 60 289 2.0 5.0 0.00 0.00 0.00 45 1018.6
20260503172404 61 274 1.0 3.0 0.00 0.00 0.00 44 1018.7
20260503171904 60 132 1.0 3.0 0.00 0.00 0.00 44 1018.8
20260503171404 60 185 1.0 6.0 0.00 0.00 0.00 44 1019.0
20260503170904 60 202 3.0 7.0 0.00 0.00 0.00 44 1018.9
20260503170404 60 357 1.0 5.0 0.00 0.00 0.00 45 1019.2
20260503150904 55 165 0.0 6.0 0.00 0.00 0.00 54 1020.5
20260503150403 55 120 1.0 8.0 0.00 0.00 0.00 52 1020.6
20260503131408 47 290 0.0 1.0 0.00 0.00 0.00 71 1020.5
20260503130907 46 292 0.0 1.0 0.00 0.00 0.00 73 1020.6
20260503130407 46 275 0.0 2.0 0.00 0.00 0.00 74 1020.6
20260503110407 33 1 0.0 0.0 0.00 0.00 0.00 95 1020.0
20260503090407 33 0 0.0 0.0 0.00 0.00 0.00 92 1019.4
20260503081407 33 0 0.0 0.0 0.00 0.00 0.00 91 1019.2
20260503080907 33 0 0.0 0.0 0.00 0.00 0.00 91 1019.2
20260503072907 33 0 0.0 0.0 0.00 0.00 0.00 89 1019.2
20260503072407 33 0 0.0 0.0 0.00 0.00 0.00 89 1019.2
20260503071907 34 0 0.0 0.0 0.00 0.00 0.00 89 1019.2
20260503071406 34 0 0.0 0.0 0.00 0.00 0.00 89 1019.2
20260503054907 36 0 0.0 0.0 0.00 0.00 0.00 85 1019.6
20260503054406 36 0 0.0 0.0 0.00 0.00 0.00 85 1019.6
20260503053907 36 0 0.0 0.0 0.00 0.00 0.00 85 1019.6
20260503053406 36 0 0.0 0.0 0.00 0.00 0.00 85 1019.6
20260503052906 36 0 0.0 0.0 0.00 0.00 0.00 84 1019.6
20260503052406 36 0 0.0 0.0 0.00 0.00 0.00 83 1019.7
20260503051907 36 0 0.0 0.0 0.00 0.00 0.00 82 1019.6
20260503051406 36 0 0.0 0.0 0.00 0.00 0.00 82 1019.6
20260503050906 36 0 0.0 0.0 0.00 0.00 0.00 81 1019.6
20260503050406 36 0 0.0 0.0 0.00 0.00 0.00 81 1019.6
20260503045906 37 0 0.0 0.0 0.00 0.00 0.00 81 1019.7
20260503045406 37 0 0.0 0.0 0.00 0.00 0.00 79 1019.6
20260503044406 37 0 0.0 0.0 0.00 0.00 0.00 79 1019.6
20260503043906 37 0 0.0 0.0 0.00 0.00 0.00 79 1019.6
20260503043406 37 0 0.0 0.0 0.00 0.00 0.00 79 1019.6
20260503042906 37 0 0.0 0.0 0.00 0.00 0.00 79 1019.6
20260503041906 37 0 0.0 0.0 0.00 0.00 0.00 79 1019.6
20260503041406 37 0 0.0 0.0 0.00 0.00 0.00 79 1019.6
20260503040906 37 0 0.0 0.0 0.00 0.00 0.00 78 1019.5
20260503035906 37 0 0.0 0.0 0.00 0.00 0.00 78 1019.5
20260503035406 37 0 0.0 0.0 0.00 0.00 0.00 78 1019.5
20260503034906 38 0 0.0 0.0 0.00 0.00 0.00 78 1019.5
20260503033905 38 0 0.0 0.0 0.00 0.00 0.00 78 1019.5
20260503033406 38 0 0.0 0.0 0.00 0.00 0.00 77 1019.5
20260503032406 39 0 0.0 0.0 0.00 0.00 0.00 76 1019.5
20260503031906 39 0 0.0 0.0 0.00 0.00 0.00 76 1019.6
20260503031405 39 0 0.0 0.0 0.00 0.00 0.00 75 1019.5
20260503030906 39 0 0.0 0.0 0.00 0.00 0.00 76 1019.6
20260503030406 39 0 0.0 0.0 0.00 0.00 0.00 76 1019.5
20260503025906 39 0 0.0 0.0 0.00 0.00 0.00 76 1019.6
20260503024906 39 0 0.0 0.0 0.00 0.00 0.00 75 1019.6
20260503024406 40 0 0.0 0.0 0.00 0.00 0.00 74 1019.6
20260503023905 40 0 0.0 0.0 0.00 0.00 0.00 74 1019.6
20260503023406 40 0 0.0 0.0 0.00 0.00 0.00 74 1019.6
20260503022906 40 0 0.0 0.0 0.00 0.00 0.00 73 1019.6
20260503022405 41 0 0.0 0.0 0.00 0.00 0.00 73 1019.6
20260503021906 41 0 0.0 0.0 0.00 0.00 0.00 72 1019.6
20260503021406 41 0 0.0 1.0 0.00 0.00 0.00 72 1019.6
20260503020905 41 0 0.0 0.0 0.00 0.00 0.00 71 1019.5
20260503020405 41 0 0.0 0.0 0.00 0.00 0.00 71 1019.5
20260503015905 41 0 0.0 0.0 0.00 0.00 0.00 71 1019.5
20260503015406 41 0 0.0 0.0 0.00 0.00 0.00 71 1019.6
20260503014905 42 0 0.0 0.0 0.00 0.00 0.00 70 1019.5
20260503014405 42 0 0.0 0.0 0.00 0.00 0.00 70 1019.4
20260503012905 43 0 0.0 0.0 0.00 0.00 0.00 67 1019.3
20260503011905 43 0 0.0 0.0 0.00 0.00 0.00 65 1019.1
20260503011406 44 0 0.0 0.0 0.00 0.00 0.00 64 1019.1
20260503010905 44 0 0.0 1.0 0.00 0.00 0.00 63 1019.1
20260503010405 44 0 0.0 1.0 0.00 0.00 0.00 62 1019.0
20260503005905 45 0 0.0 1.0 0.00 0.00 0.00 62 1019.0
20260503005405 45 359 0.0 1.0 0.00 0.00 0.00 62 1018.9
20260503004406 46 344 0.0 1.0 0.00 0.00 0.00 60 1018.8
20260503003905 46 0 0.0 3.0 0.00 0.00 0.00 60 1018.8
20260503003406 46 352 0.0 2.0 0.00 0.00 0.00 59 1018.8
20260503002405 46 8 1.0 3.0 0.00 0.00 0.00 58 1018.8
20260503001905 47 357 2.0 3.0 0.00 0.00 0.00 57 1018.7
20260503001405 47 332 2.0 8.0 0.00 0.00 0.00 57 1018.7
20260503000905 47 350 1.0 5.0 0.00 0.00 0.00 57 1018.6
20260503000407 48 354 1.0 3.0 0.00 0.00 0.00 56 1018.6
20260502235906 48 338 2.0 6.0 0.00 0.00 0.00 56 1018.5
20260502235405 48 350 1.0 5.0 0.00 0.00 0.00 56 1018.5
20260502234905 48 337 3.0 7.0 0.00 0.00 0.00 55 1018.4
20260502234406 49 331 2.0 7.0 0.00 0.00 0.00 55 1018.3
20260502233905 49 353 0.0 3.0 0.00 0.00 0.00 56 1018.3
20260502232905 49 26 2.0 3.0 0.00 0.00 0.00 55 1018.2
20260502232405 49 18 1.0 2.0 0.00 0.00 0.00 55 1018.2
20260502231906 49 4 1.0 6.0 0.00 0.00 0.00 54 1018.2
20260502231405 49 3 2.0 8.0 0.00 0.00 0.00 53 1018.2
20260502230406 50 6 1.0 3.0 0.00 0.00 0.00 53 1018.1
20260502225905 50 44 1.0 5.0 0.00 0.00 0.00 51 1018.1
20260502225405 51 340 2.0 5.0 0.00 0.00 0.00 51 1018.0
20260502224905 51 327 1.0 5.0 0.00 0.00 0.00 50 1018.0
20260502224405 51 7 1.0 6.0 0.00 0.00 0.00 53 1018.0
20260502223905 51 0 1.0 8.0 0.00 0.00 0.00 50 1018.0
20260502223405 51 358 1.0 6.0 0.00 0.00 0.00 51 1018.0
20260502222905 51 352 2.0 7.0 0.00 0.00 0.00 50 1017.9
20260502222405 51 329 2.0 6.0 0.00 0.00 0.00 50 1017.9
20260502221905 50 325 3.0 8.0 0.00 0.00 0.00 50 1018.0
20260502221405 51 328 4.0 10.0 0.00 0.00 0.00 50 1017.9
20260502220905 51 333 2.0 8.0 0.00 0.00 0.00 51 1018.0
20260502220405 51 350 3.0 7.0 0.00 0.00 0.00 49 1018.0
20260502215905 51 328 1.0 10.0 0.00 0.00 0.00 49 1017.9
20260502215405 52 342 1.0 3.0 0.00 0.00 0.00 51 1017.8
20260502214905 52 334 1.0 3.0 0.00 0.00 0.00 50 1017.8
20260502214405 51 349 2.0 5.0 0.00 0.00 0.00 50 1017.8
20260502213905 51 343 4.0 9.0 0.00 0.00 0.00 49 1017.8
20260502213405 52 333 2.0 6.0 0.00 0.00 0.00 49 1017.7
20260502212405 52 344 2.0 5.0 0.00 0.00 0.00 48 1017.7
20260502211405 52 341 2.0 8.0 0.00 0.00 0.00 50 1017.7
20260502210905 51 331 2.0 8.0 0.00 0.00 0.00 49 1017.7
20260502204905 52 230 1.0 5.0 0.00 0.00 0.00 48 1017.7
20260502203905 52 335 4.0 10.0 0.00 0.00 0.00 48 1017.7
20260502203404 52 335 1.0 10.0 0.00 0.00 0.00 50 1017.7
20260502202905 52 12 0.0 3.0 0.00 0.00 0.00 48 1017.7
20260502202404 53 296 3.0 7.0 0.00 0.00 0.00 45 1017.8